{"data":{"norad_id":55914,"intl_designator":"2023-037A","name":"STARLINK-5856","alt_names":[],"object_type":"PAYLOAD","status":"ACTIVE","operator":null,"country":"US","launch_date":"2023-03-17","launch_site_code":"AFWTR","launch_vehicle":null,"mission":null,"orbit_class":"UNKNOWN","rcs_meters":null,"size_class":null,"mass_kg":null,"dimensions":null,"purposes":["comms"],"wikipedia_slug":null,"has_3d_model":false,"image_url":null,"decayed_at":null,"tle_current":{"epoch":"2026-09-20T11:55:17.540256Z","epoch_age_seconds":103419,"freshness":"FRESH","line1":"1 55914U 23037A   26263.49673079 -.00001163  00000+0 -89688-4 0  9998","line2":"2 55914  70.0007 173.4309 0002907 268.1324  91.9502 14.98322397193356","mean_motion":14.98322397,"eccentricity":0.0002907,"inclination_deg":70.0007,"raan_deg":173.4309,"arg_perigee_deg":268.1324,"mean_anomaly_deg":91.9502,"bstar":-8.9688e-5,"rev_number":19335,"period_min":96.107486805458,"perigee_km":570.0589747859,"apogee_km":574.09983060243,"semimajor_km":6950.2164026942,"source":"CELESTRAK","updated_at":"2026-09-21T09:00:33.321905Z"}}}